This is the latest recevied weather packets stored in our database for station/object OE3MHU-13. If no packets are shown the sender has not sent any weather packets the latest 10 day(s).
| Time | Temp. | Humidity | Pressure | Rain* | Wind** | Luminosity | Snow |
|---|---|---|---|---|---|---|---|
| 1787483843 | 25.56° C | 44% | 1023.6 hPa | 0 mm | - | - | - |
| 1787483542 | 24.44° C | 43% | 1023.7 hPa | 0 mm | - | - | - |
| 1787483243 | 25° C | 44% | 1023.7 hPa | 0 mm | - | - | - |
| 1787482943 | 25° C | 44% | 1023.9 hPa | 0 mm | - | - | - |
| 1787482639 | 25° C | 44% | 1023.9 hPa | 0 mm | - | - | - |
| 1787482339 | 25° C | 43% | 1023.8 hPa | 0 mm | - | - | - |
| 1787482039 | 25° C | 43% | 1023.8 hPa | 0 mm | - | - | - |
| 1787481739 | 25.56° C | 43% | 1023.9 hPa | 0 mm | - | - | - |
| 1787481570 | 25° C | 45% | 1023.9 hPa | 0 mm | - | - | - |
| 1787481552 | 25° C | 44% | 1023.9 hPa | 0 mm | - | - | - |
| 1787480982 | 25° C | 45% | 1023.9 hPa | 0 mm | - | - | - |
| 1787480543 | 25.56° C | 43% | 1023.9 hPa | 0 mm | - | - | - |
| 1787480240 | 26.67° C | 44% | 1023.9 hPa | 0 mm | - | - | - |
| 1787479935 | 26.11° C | 46% | 1024 hPa | 0 mm | - | - | - |
| 1787479628 | 25.56° C | 45% | 1024 hPa | 0 mm | - | - | - |
| 1787479334 | 25.56° C | 47% | 1024 hPa | 0 mm | - | - | - |
| 1787479016 | 26.11° C | 46% | 1024 hPa | 0 mm | - | - | - |
| 1787478830 | 25.56° C | 47% | 1024 hPa | 0 mm | - | - | - |
| 1787478825 | 26.11° C | 45% | 1024 hPa | 0 mm | - | - | - |
| 1787478099 | 25° C | 48% | 1024 hPa | 0 mm | - | - | - |
| 1787477792 | 25° C | 48% | 1024.1 hPa | 0 mm | - | - | - |
| 1787477485 | 25.56° C | 49% | 1024.2 hPa | 0 mm | - | - | - |
| 1787477180 | 25° C | 49% | 1024.2 hPa | 0 mm | - | - | - |
| 1787476874 | 25° C | 50% | 1024.3 hPa | 0 mm | - | - | - |
| 1787476572 | 25° C | 50% | 1024.3 hPa | 0 mm | - | - | - |
* Rain latest hour (hover to see other rain measurements)
** Current wind speed in m/s (hover to see current wind gust speed)